Back to catalog

STARLINK-5296

AliveCommunicationsVLEO
NORAD 55312·PAYLOAD·🇺🇸 United States

Launched Jan 19, 2023 from Vandenberg Space Force Base

Loading…

Next Passes (next 24 hours)

TLE

FreshSource: CelesTrak SupGP

Epoch: Sep 15, 2026, 01:36 UTC

1 55312C 23010AV  26258.06715278 -.00036933  00000+0 -30947-2 0  2589
2 55312  70.0007 246.7841 0003570 265.0669 355.1399 14.98353430    19

Track STARLINK-5296 in real time with AllMySat

Download on the App Store